This is the latest recevied weather packets stored in our database for station/object E25WRM. If no packets are shown the sender has not sent any weather packets the latest 10 day(s).
| Time | Temp. | Humidity | Pressure | Rain* | Wind** | Luminosity | Snow |
|---|---|---|---|---|---|---|---|
| 1777655365 | 32.78° C | 30% | 1005 hPa | - | - | 0 W/m² | - |
| 1777654455 | 33.33° C | 30% | 1005 hPa | - | - | 0 W/m² | - |
| 1777653545 | 33.33° C | 28% | 1004 hPa | - | - | 0 W/m² | - |
| 1777652635 | 33.33° C | 28% | 1004 hPa | - | - | 0 W/m² | - |
| 1777651725 | 33.33° C | 28% | 1004 hPa | - | - | 0 W/m² | - |
| 1777650815 | 33.89° C | 29% | 1004 hPa | - | - | 0 W/m² | - |
| 1777649905 | 33.89° C | 30% | 1004 hPa | - | - | 0 W/m² | - |
| 1777648995 | 33.89° C | 31% | 1004 hPa | - | - | 0 W/m² | - |
| 1777648085 | 34.44° C | 32% | 1004 hPa | - | - | 0 W/m² | - |
| 1777647175 | 34.44° C | 33% | 1003 hPa | - | - | 0 W/m² | - |
| 1777646265 | 34.44° C | 33% | 1003 hPa | - | - | 0 W/m² | - |
| 1777645355 | 35° C | 35% | 1002 hPa | - | - | 0 W/m² | - |
| 1777644445 | 36.11° C | 39% | 1002 hPa | - | - | 0 W/m² | - |
| 1777643535 | 37.22° C | 47% | 1002 hPa | - | - | 0 W/m² | - |
| 1777642625 | 37.22° C | 47% | 1002 hPa | - | - | 0 W/m² | - |
| 1777641715 | 37.22° C | 47% | 1001 hPa | - | - | 0 W/m² | - |
| 1777640805 | 37.22° C | 47% | 1001 hPa | - | - | 0 W/m² | - |
| 1777639895 | 37.22° C | 46% | 1001 hPa | - | - | 0 W/m² | - |
| 1777638985 | 37.78° C | 45% | 1001 hPa | - | - | 0 W/m² | - |
| 1777638075 | 37.78° C | 44% | 1001 hPa | - | - | 0 W/m² | - |
| 1777637165 | 38.33° C | 42% | 1001 hPa | - | - | 0 W/m² | - |
| 1777636255 | 40° C | 39% | 1001 hPa | - | - | 0 W/m² | - |
| 1777635345 | 40° C | 40% | 1001 hPa | - | - | 0 W/m² | - |
| 1777634435 | 39.44° C | 41% | 1000 hPa | - | - | 0 W/m² | - |
| 1777633525 | 38.33° C | 43% | 1000 hPa | - | - | 0 W/m² | - |
* Rain since midnight (hover to see other rain measurements)
** Current wind speed in m/s (hover to see current wind gust speed)